Current weather by "City, St" or "zip code"  
 

Current Conditions: Springfield - Abraham Lincoln Capital Airport, IL

Overcast


53.0 F

Last Updated on Oct 21 2021, 12:52 pm CDT
Humidity: 64%
Wind Speed: W 18.4 G 25.3 mph
Barometer 30.03 in
Dewpoint: 41.0 F
Visibility: 10.00 mi
Precip: --
Heat Index: NA
Wind Chill: 48 F
Current conditions at:

Springfield - Abraham Lincoln Capital Airport, IL (KSPI)

Lat: 39.84527 Lon: 89.68405

Local Radar Image active severe weather and emergency alerts image image weather storm and storm spotter reports image weather observation monitoring service image
Local
Radar
Active
Alerts
Storm Reports Obs
Monitoring

Sign-up For Email & Text Message Weather Alert Notification Services



Advertise Here

Observation History for Springfield - Abraham Lincoln Capital Airport, IL


Time Wind
(mph)
Vis
(mi)
Weather Precip (in) Temperature (F) Relative
Humidity
Wind
Chill
(F)
Heat
Index
(F)
Pressure
Air Dwpt altimeter
(in)
sea level
(mb)
Rmks
12:52 pm CDT W 18.4 G 25.3 10.00 Overcast -- 53.0 41.0 64% 48 NA 30.03 1017.0
11:52 am CDT W 18.4 G 28.8 10.00 Overcast -- 53.0 41.0 64% 48 NA 30.03 1016.9
10:52 am CDT W 17.3 G 29.9 10.00 Overcast -- 51.0 39.9 66% 45 NA 30.02 1016.6
9:52 am CDT W 18.4 G 25.3 10.00 Mostly Cloudy -- 51.0 39.9 66% 45 NA 30.01 1016.1
8:52 am CDT W 17.3 G 24.2 10.00 Fair -- 49.0 39.0 69% 43 NA 30.00 1015.6
7:52 am CDT W 15.0 10.00 Overcast -- 49.0 43.0 80% 43 NA 29.98 1014.9
6:52 am CDT W 13.8 10.00 Mostly Cloudy -- 49.0 43.0 80% 44 NA 29.96 1014.5
5:52 am CDT W 11.5 10.00 Fair -- 50.0 43.0 77% 46 NA 29.95 1014.1
4:52 am CDT W 11.5 10.00 Fair -- 50.0 44.1 80% 46 NA 29.95 1014.0
3:52 am CDT W 9.2 10.00 Fair -- 52.0 44.1 75% 49 NA 29.95 1013.9
2:52 am CDT W 12.7 10.00 Fair -- 54.0 44.1 69% 50 NA 29.95 1013.8
1:52 am CDT W 10.4 10.00 Fair -- 56.0 51.1 84% 53 NA 29.94 1013.5
12:52 am CDT W 8.1 10.00 A Few Clouds -- 59.0 52.0 78% 58 NA 29.94 1013.5
11:52 pm CDT SW 8.1 10.00 Mostly Cloudy -- 65.0 61.0 87% NA NA 29.93 1013.1
10:52 pm CDT SW 6.9 10.00 A Few Clouds -- 66.0 62.1 87% NA NA 29.94 1013.4
9:52 pm CDT SW 5.8 10.00 Overcast Trace 65.0 62.1 90% NA NA 29.94 1013.6
8:52 pm CDT S 9.2 10.00 Light Rain 00.07 65.0 62.1 90% NA NA 29.94 1013.8
7:52 pm CDT S 10.4 10.00 Overcast -- 72.0 55.9 57% NA NA 29.93 1013.3
6:52 pm CDT S 12.7 10.00 Overcast -- 72.0 55.9 57% NA NA 29.93 1013.3
5:52 pm CDT S 12.7 9.00 Mostly Cloudy -- 74.0 55.0 52% NA NA 29.93 1013.5
4:52 pm CDT S 19.6 G 31.1 10.00 Fair -- 76.0 55.0 48% NA NA 29.94 1013.5
3:52 pm CDT S 16.1 G 27.6 10.00 Fair -- 76.0 55.0 48% NA NA 29.94 1013.7
2:52 pm CDT S 13.8 G 24.2 10.00 Fair -- 78.0 55.9 47% NA NA 29.96 1014.2
1:52 pm CDT S 15.0 G 21.9 10.00 Fair -- 77.0 55.0 47% NA NA 29.98 1015.1

Regional Weather Observation


Logan County Airport, IL (KAAA)

Overcast
52.0 F

Jacksonville Municipal Airport, IL (KIJX)

Overcast
52.0 F

Peoria - General Downing-Peoria International Airport, IL (KPIA)

Overcast
51.0 F

Taylorville, Taylorville Municipal Airport, IL (KTAZ)

Overcast
NULL F

Mount Sterling, Mount Sterling Municipal Airport, IL (KI63)

Overcast
50.0 F

Macomb Municipal Airport, IL (KMQB)

Overcast
50.0 F

Advertise Here


Advertise Here